Theta_e
333 332 332 332 331 330 329 328 328 327 327 326 324 324 322 317 314 310 305 302 301 300 299 298 298 298 298 298 298 298 298 298 298 299 299 299 299 299 298 298 298 298
333 332 332 331 330 330 329 328 328 327 327 325 325 324 319 312 308 305 302 301 300 299 299 298 298 298 298 298 298 298 298 298 298 298 299 299 298 298 298 298 298 298
332 332 331 330 330 329 329 328 328 327 326 325 325 322 314 307 304 302 301 300 299 298 298 298 298 298 298 297 297 298 298 298 298 298 298 298 298 298 298 298 298 297
332 332 331 330 329 329 328 328 328 327 325 325 324 318 309 304 302 300 300 300 299 298 298 297 297 297 297 297 297 297 298 298 298 298 298 298 298 297 297 297 297 297
331 331 330 330 330 329 328 328 327 326 325 325 322 313 305 301 300 299 299 299 298 298 297 297 297 297 297 297 297 297 297 297 297 297 297 297 297 297 297 296 296 296
331 331 330 330 330 329 328 328 327 326 325 323 318 309 302 300 299 298 298 298 298 297 297 297 297 297 297 297 297 297 296 297 297 297 297 297 296 296 296 295 295 295
330 330 330 329 329 328 328 328 328 327 324 322 315 305 300 299 298 298 298 297 297 297 297 297 296 297 297 297 296 296 296 297 297 297 296 296 296 296 295 295 295 294
330 329 329 330 329 328 327 327 327 325 322 319 312 303 299 299 297 297 297 297 297 296 296 296 296 296 297 296 296 296 296 296 296 296 296 295 295 295 295 294 294 294
329 330 330 330 329 328 327 326 325 323 320 316 308 301 299 298 297 297 297 296 296 296 296 296 296 296 296 296 296 296 296 296 297 296 296 296 297 296 295 294 294 294
329 330 331 330 328 327 327 326 323 321 318 313 305 299 298 298 297 297 297 296 296 296 296 296 296 296 296 296 296 296 296 296 296 296 296 297 297 296 295 295 295 294
330 331 330 329 327 326 326 324 322 319 316 311 303 298 297 297 297 296 296 296 296 297 297 296 296 296 295 296 296 296 296 296 296 297 297 297 296 295 295 295 295 295
330 331 329 328 327 326 324 322 320 318 315 308 302 298 297 297 297 296 296 296 297 298 298 297 296 296 296 296 296 296 296 296 297 297 297 296 296 295 295 295 295 294
330 331 329 327 327 325 322 320 319 317 313 306 300 298 297 296 296 296 296 297 298 299 299 298 297 297 297 297 297 297 296 296 296 297 297 296 296 296 296 295 295 294
330 329 328 327 326 323 321 319 318 316 311 304 299 298 297 296 296 295 296 298 299 298 299 298 297 297 297 297 297 297 297 296 296 297 296 295 295 296 296 295 295 295
329 328 327 326 324 322 320 318 317 315 310 302 298 298 297 296 296 295 295 297 296 297 297 297 297 297 297 296 297 298 298 298 298 298 297 297 297 296 295 295 296 295
328 327 327 325 323 321 319 316 315 314 308 301 298 298 297 296 295 295 295 295 295 295 295 295 296 297 296 295 297 298 299 299 298 298 298 298 298 298 296 296 296 296
328 327 326 324 322 320 317 315 314 312 307 301 298 299 297 295 295 295 295 294 295 295 294 294 295 295 295 295 295 297 299 299 299 298 298 298 298 299 299 297 297 296
328 326 324 322 320 318 316 314 312 310 306 301 299 299 297 295 295 296 295 294 294 294 294 295 295 294 295 295 294 295 296 299 300 299 298 299 299 300 301 300 298 296
328 326 324 322 319 317 315 313 310 309 306 301 300 300 297 296 298 297 295 293 294 294 294 294 294 294 295 294 295 295 294 297 300 298 297 299 299 298 299 298 297 296
328 326 323 321 318 316 314 312 310 308 305 301 300 299 298 298 299 297 294 293 294 294 294 294 294 294 295 294 294 295 293 295 299 298 296 297 296 295 295 295 294 295
327 326 323 320 318 316 313 311 309 307 303 301 299 299 300 299 297 295 294 294 294 294 294 294 294 294 295 294 294 295 293 295 298 297 294 294 294 293 293 293 293 293
327 326 323 319 317 315 312 310 308 306 303 301 300 299 299 297 294 294 294 294 294 294 294 294 294 294 294 294 294 294 293 293 295 294 292 293 293 293 293 293 293 293
326 325 322 320 317 314 312 310 308 306 305 302 300 298 297 295 294 294 294 294 294 294 294 294 294 294 294 294 293 293 293 293 293 293 293 293 293 293 293 293 293 293
325 324 323 321 317 315 313 312 309 308 306 302 299 298 296 294 294 294 294 294 294 294 294 294 294 294 293 293 293 293 294 293 293 294 294 293 293 293 293 294 293 293
325 324 322 320 317 316 315 313 311 309 305 301 299 298 296 294 294 293 293 293 293 294 294 294 294 293 293 293 293 294 293 293 294 295 295 293 294 294 293 294 293 293
325 324 322 319 318 317 316 313 311 308 304 301 301 299 296 294 293 293 293 293 293 293 294 294 294 293 293 293 293 294 293 293 294 296 295 293 294 294 294 294 293 294
Wind_Speed
16 16 15 13 11 9 7 6 6 5 5 6 7 10 10 4 7 10 12 12 11 10 10 11 12 12 13 13 12 11 11 12 12 12 11 10 9 9 10 10 10 10
18 17 16 14 13 10 8 8 8 7 7 8 10 11 7 8 11 12 13 11 11 11 11 12 12 13 13 13 12 11 11 12 12 11 10 9 9 9 10 10 10 10
18 18 17 15 13 11 9 10 10 8 8 9 11 10 6 13 14 14 13 12 11 11 11 12 12 13 13 12 11 11 11 11 11 10 9 9 9 9 10 10 10 10
19 18 17 15 14 12 10 12 11 8 8 10 11 7 11 15 14 14 13 12 11 11 12 12 12 13 13 12 11 10 11 11 10 9 8 8 9 9 10 10 10 11
20 18 17 16 14 13 13 13 11 8 9 11 10 8 15 16 14 14 13 12 12 11 12 12 12 12 12 11 10 10 10 10 10 9 7 8 9 9 10 10 11 11
20 18 17 16 15 15 15 14 11 9 11 11 7 12 17 15 14 14 12 13 13 12 13 12 12 12 12 11 10 10 10 10 9 8 7 8 9 9 10 11 11 12
19 19 18 17 17 17 17 15 12 11 12 11 9 16 17 15 15 14 13 13 13 12 13 12 12 12 11 11 10 10 10 9 8 8 7 8 9 9 10 11 11 12
19 19 18 18 19 19 18 14 11 12 12 10 12 18 17 16 16 15 14 14 13 13 13 12 12 11 11 10 9 9 9 9 9 8 7 8 9 9 10 10 11 12
19 18 19 20 21 20 17 12 12 13 11 10 16 20 18 18 17 15 15 14 14 13 12 12 11 10 11 10 9 9 8 9 9 8 8 8 9 9 9 10 11 12
19 20 22 23 22 19 16 12 13 13 10 11 19 20 18 19 17 16 16 15 15 14 12 11 11 10 10 10 10 9 8 8 8 8 8 9 8 8 9 9 10 11
20 23 24 23 21 18 15 13 14 13 10 14 21 20 18 19 18 18 17 16 15 14 12 11 11 10 10 9 9 9 9 9 9 9 9 8 8 8 9 9 10 10
22 23 23 22 20 18 15 15 16 12 11 17 21 20 19 19 18 18 18 16 15 14 13 12 11 10 10 9 9 9 9 9 9 10 9 8 8 8 8 9 9 9
24 24 24 22 20 18 16 17 17 13 13 19 22 21 20 19 18 18 18 17 16 15 14 13 12 11 11 10 9 9 10 9 10 10 9 8 8 7 7 7 8 8
25 25 23 21 19 18 18 19 18 14 16 21 22 20 19 18 18 18 18 17 17 16 15 14 12 12 11 11 10 10 10 10 9 9 8 7 7 6 6 6 6 6
26 24 22 20 19 20 20 20 19 16 18 22 21 19 19 17 17 18 17 18 18 17 16 15 14 13 12 12 12 11 10 10 9 8 7 6 6 5 5 5 4 4
23 21 21 21 22 22 21 21 19 17 19 23 21 19 18 18 18 17 17 17 17 17 17 15 15 14 14 13 13 13 11 10 9 8 7 6 4 3 3 3 2 2
22 22 22 22 23 23 22 21 19 18 22 24 21 19 19 19 19 18 17 17 17 17 17 16 15 15 13 13 14 14 13 11 9 8 7 6 5 3 2 1 1 1
23 23 23 24 24 25 23 20 19 21 24 24 21 20 19 19 19 18 17 17 17 17 17 16 16 15 14 13 13 13 13 12 9 8 7 6 5 4 3 3 2 1
23 23 24 24 25 24 22 19 20 23 24 23 22 21 21 20 19 19 19 18 18 18 17 17 16 15 14 14 13 12 12 12 9 9 8 7 7 6 6 6 4 1
22 24 24 24 24 23 21 21 22 22 22 22 22 22 22 20 19 19 19 19 19 19 18 18 17 15 14 13 13 12 11 11 10 10 10 10 8 7 7 6 4 3
23 25 25 24 24 23 22 22 22 23 24 24 23 21 20 19 19 20 20 20 20 20 19 19 17 15 14 13 12 12 11 12 11 11 11 10 8 7 6 5 4 3
27 26 26 26 25 24 24 24 24 25 25 23 22 20 19 20 21 21 20 21 21 21 20 18 16 15 14 13 13 13 13 12 12 10 9 8 7 6 6 5 4 3
30 28 27 26 26 25 25 25 24 24 23 22 21 21 21 22 22 21 21 21 21 21 20 18 17 16 15 14 14 14 13 12 11 9 8 8 7 6 6 5 4 3
29 28 26 25 25 25 25 25 25 23 21 21 22 22 22 23 22 21 22 22 21 21 20 18 17 16 15 15 14 13 13 11 9 9 9 9 7 7 6 5 4 4
27 27 27 25 25 25 24 26 24 21 20 22 23 22 22 23 23 22 22 22 22 21 20 19 18 16 15 14 13 13 13 12 10 10 11 9 8 7 7 5 4 4
27 27 27 25 24 23 23 25 22 20 23 24 22 22 22 23 23 22 22 22 22 21 20 19 18 16 15 14 14 13 13 13 12 12 11 10 9 8 6 5 4 3
Wind_Direction
185 191 198 197 192 188 189 197 206 221 261 277 278 302 306 248 169 158 157 155 149 145 144 142 137 136 132 126 124 125 124 118 111 105 101 99 98 96 92 87 84 81
186 191 196 197 195 191 193 205 213 228 259 268 281 301 280 188 164 158 157 154 150 147 146 142 136 134 131 125 124 124 121 113 105 102 101 101 100 97 92 86 83 80
188 192 196 198 199 196 201 213 215 230 260 270 289 294 212 171 164 162 158 154 153 149 146 141 137 136 130 125 125 121 116 109 105 105 103 102 102 98 93 86 82 79
189 193 197 199 199 200 209 215 214 234 264 277 291 266 181 167 166 164 159 156 154 150 147 143 139 137 130 125 123 118 115 111 108 107 105 106 105 99 93 87 83 79
190 192 197 199 199 204 212 214 217 243 266 279 281 209 173 167 166 163 160 158 155 153 150 144 139 136 130 126 122 119 117 114 112 111 111 109 104 98 93 86 83 79
194 192 196 199 203 209 211 211 222 248 266 277 252 184 171 167 165 163 163 162 158 154 149 142 140 136 131 126 124 124 122 118 118 118 114 110 102 96 91 87 84 79
197 194 196 199 204 209 208 211 229 250 263 267 217 179 171 168 168 166 166 165 159 153 149 144 142 138 131 128 128 130 129 126 125 121 117 110 100 95 92 90 88 83
196 194 196 201 205 206 205 215 238 249 257 249 196 176 173 172 173 171 168 166 160 156 154 148 144 140 134 132 134 137 137 134 130 125 120 111 102 99 95 93 91 87
194 195 201 206 206 203 205 221 239 241 247 224 185 177 176 175 175 172 169 167 163 161 159 153 148 144 140 138 139 142 142 138 134 131 123 114 108 105 98 93 92 89
197 204 208 207 202 201 210 227 232 233 235 202 182 178 177 176 174 173 172 169 166 165 163 157 153 150 147 145 145 146 145 140 137 134 128 125 123 116 105 98 95 91
201 210 208 202 201 206 218 227 225 227 223 193 182 178 177 178 177 174 173 171 167 167 167 163 158 155 152 151 151 150 148 145 143 139 139 140 133 120 108 101 97 96
202 208 202 199 206 213 217 218 219 224 213 191 183 179 179 181 180 175 171 170 168 169 172 169 164 159 157 157 158 157 154 153 150 148 149 145 130 116 106 100 98 96
203 205 202 205 211 211 210 212 215 219 206 191 185 181 181 182 179 173 170 170 172 174 175 175 170 165 163 164 165 164 161 159 156 154 153 146 133 124 113 101 96 91
205 203 206 213 213 208 208 210 212 213 201 191 185 181 181 181 178 175 172 173 176 177 178 179 176 171 170 169 169 169 166 161 159 157 154 145 134 130 119 101 90 86
204 204 211 216 213 210 209 208 210 210 198 189 184 183 182 181 181 180 176 177 180 180 181 183 179 177 178 173 171 171 167 163 162 160 157 147 135 130 116 101 90 79
205 210 215 214 213 214 210 205 207 206 195 187 184 184 184 182 183 184 182 183 184 183 185 185 183 184 184 177 172 170 168 168 169 164 161 159 153 143 119 104 102 54
210 215 216 215 216 214 206 203 204 201 193 188 184 184 185 183 182 185 187 188 189 188 189 188 189 189 185 180 176 171 167 169 173 172 169 170 166 157 155 137 134 350
214 215 214 215 215 208 200 200 202 200 195 190 187 187 187 186 186 187 190 193 193 193 191 192 195 192 184 182 179 173 169 166 172 184 179 177 178 170 187 220 230 267
215 215 214 215 213 206 198 199 200 199 197 194 191 191 189 190 193 192 192 197 197 195 194 196 198 193 186 185 180 176 173 165 172 192 186 182 192 187 188 200 201 221
214 215 215 215 212 204 198 200 199 195 195 195 193 193 191 192 195 191 192 199 199 196 197 200 198 192 189 187 179 178 176 166 176 197 193 189 195 192 191 191 179 177
214 217 214 212 209 202 198 199 195 191 194 195 194 196 195 192 190 190 194 199 198 198 200 201 198 192 189 186 179 178 179 173 180 197 197 192 195 193 192 187 175 173
214 215 211 208 205 199 197 198 193 192 196 197 195 195 192 187 188 191 195 197 198 199 201 199 197 192 188 185 182 182 183 182 187 195 196 194 196 199 197 188 183 181
213 213 210 208 203 197 197 197 195 197 200 198 194 191 188 187 189 193 195 196 197 198 199 198 196 193 189 187 186 185 185 188 190 193 198 202 203 203 199 193 193 194
214 214 214 210 202 197 198 199 199 201 202 197 192 189 188 189 191 193 194 196 197 197 198 197 196 194 191 189 189 188 188 190 190 196 207 210 206 204 200 197 204 213
216 217 216 210 202 200 201 201 202 204 200 193 189 190 192 192 191 192 194 195 195 196 197 197 196 194 192 191 191 191 192 190 187 200 212 208 203 203 200 198 208 219
221 220 218 211 205 204 203 202 204 202 194 189 189 191 193 194 194 192 194 196 194 195 196 196 195 192 192 194 195 194 197 193 190 202 210 203 197 197 194 200 209 228